Total_Precipitation_Accumulation
0.94 0.44 0.40 0.61 0.82 0.86 1.48 1.31 1.35 0.40 0.28 0.35 0.62 0.96 1.13 1.27 1.54 1.55 1.57 1.46 1.23 1.34 1.92 1.61 1.42 1.25 0.94 0.84 0.85 0.79 0.78 1.01 1.54 1.50 1.80 1.83 1.99 2.41 2.75 3.24 3.72 4.31 4.61 3.93
0.68 0.30 0.37 0.58 0.74 0.78 0.81 0.65 0.47 0.24 0.21 0.36 0.62 0.92 1.00 1.38 1.37 2.28 1.68 1.46 1.37 1.17 1.10 1.05 0.90 0.84 0.76 0.85 0.83 0.96 0.94 0.82 0.93 1.09 1.27 1.55 1.56 1.67 1.78 1.97 2.11 2.62 3.22 4.05
1.29 0.37 0.82 1.75 0.79 0.71 1.36 0.77 0.77 1.06 0.87 0.71 0.94 1.02 1.19 1.88 2.98 2.50 1.67 1.72 1.24 1.08 0.98 0.84 0.62 0.62 0.71 0.66 0.70 0.56 0.86 0.91 0.75 0.86 1.09 1.04 1.28 1.49 1.36 1.33 1.65 1.78 1.93 2.59
1.74 1.00 2.35 1.08 0.19 0.21 0.70 1.17 0.95 0.76 0.91 1.05 0.81 0.86 1.08 1.21 1.61 1.58 1.38 1.53 1.15 0.75 0.58 0.44 0.40 0.41 0.51 0.63 0.57 0.60 0.56 0.55 0.79 0.70 0.60 0.69 0.82 1.03 1.26 1.56 1.56 1.47 1.57 1.61
2.16 1.36 0.84 0.45 0.22 0.11 0.23 0.62 0.36 0.60 0.91 0.99 0.81 0.72 0.83 0.31 0.44 0.61 0.71 0.92 0.74 0.72 0.66 0.43 0.31 0.30 0.26 0.36 0.55 0.64 0.71 0.80 0.77 0.76 0.87 0.98 0.86 0.98 0.99 1.04 1.39 1.54 1.46 1.44
2.02 1.93 1.09 0.54 0.08 0.03 0.20 0.94 0.50 0.66 0.79 0.97 0.71 0.79 0.61 0.25 0.26 0.29 0.34 0.52 0.71 0.64 0.61 0.69 0.55 0.37 0.32 0.33 0.50 0.56 0.61 0.99 1.23 1.23 1.11 1.04 0.93 0.88 1.01 1.07 1.10 1.04 1.43 1.77
1.88 1.66 0.78 0.22 0.07 0.14 0.95 1.37 0.67 1.58 1.39 1.36 1.67 1.58 0.92 0.50 0.23 0.08 0.10 0.14 0.24 0.45 0.48 0.31 0.28 0.30 0.26 0.25 0.37 0.47 0.60 0.99 1.26 1.40 1.40 1.25 0.94 0.71 0.72 0.96 1.19 1.28 1.27 1.29
2.53 2.72 1.50 0.25 0.23 0.62 0.67 0.38 0.89 1.46 1.34 0.96 0.88 0.93 0.64 0.33 0.19 0.08 0.03 0.01 0.03 0.10 0.28 0.36 0.20 0.14 0.22 0.27 0.31 0.38 0.49 0.64 0.84 1.05 1.19 1.23 1.16 0.99 0.89 0.80 0.85 1.03 1.22 1.41
1.75 1.67 0.78 0.31 0.34 0.36 0.34 0.58 1.07 1.23 1.10 0.80 0.57 0.43 0.52 0.53 0.33 0.18 0.10 0.03 0.02 0.01 0.03 0.16 0.26 0.26 0.21 0.23 0.22 0.29 0.45 0.51 0.53 0.63 0.80 0.95 1.05 1.13 1.22 1.34 1.43 1.46 1.32 1.31
1.13 0.56 0.34 0.33 0.27 0.23 0.24 0.33 0.96 0.93 0.60 0.46 0.39 0.39 0.33 0.26 0.25 0.19 0.20 0.25 0.20 0.16 0.15 0.16 0.16 0.18 0.24 0.21 0.21 0.29 0.33 0.39 0.42 0.53 0.70 0.74 0.91 1.01 1.07 1.33 1.58 1.65 1.68 1.85
0.99 0.58 0.47 0.31 0.27 0.33 0.38 0.53 0.58 0.86 0.55 0.32 0.22 0.22 0.25 0.23 0.23 0.19 0.13 0.11 0.09 0.16 0.21 0.19 0.16 0.16 0.16 0.16 0.26 0.37 0.42 0.45 0.47 0.53 0.56 0.54 0.76 1.05 1.12 1.50 2.00 2.24 2.46 2.45
1.40 0.73 0.88 0.57 0.62 0.74 0.69 0.52 0.61 0.47 0.30 0.15 0.18 0.26 0.27 0.41 0.39 0.24 0.20 0.19 0.21 0.21 0.16 0.16 0.19 0.25 0.27 0.29 0.29 0.31 0.37 0.50 0.63 0.60 0.65 0.69 0.77 1.35 1.82 1.99 2.23 2.41 2.75 2.91
1.57 1.04 1.04 0.93 0.88 0.54 0.53 0.56 0.61 0.58 0.39 0.26 0.27 0.27 0.38 0.65 0.79 0.59 0.44 0.44 0.41 0.42 0.36 0.31 0.29 0.30 0.33 0.37 0.42 0.51 0.53 0.49 0.58 0.69 0.78 0.88 0.97 1.04 1.58 2.04 1.98 2.15 2.30 2.34
1.46 1.63 1.76 1.30 1.34 0.96 0.47 0.36 0.44 0.28 0.22 0.21 0.24 0.29 0.38 0.50 0.74 0.97 1.07 1.21 1.11 0.91 0.93 0.83 0.67 0.79 0.84 0.78 0.80 0.82 0.87 1.00 1.07 1.26 1.28 1.29 1.32 1.39 1.31 1.24 1.34 1.67 1.73 1.66
0.50 0.41 0.79 0.84 0.64 0.52 0.26 0.11 0.09 0.14 0.18 0.17 0.13 0.13 0.13 0.20 0.26 0.39 0.62 1.13 1.55 1.84 1.96 1.84 1.70 1.91 1.91 1.75 1.66 1.67 1.65 1.61 1.47 1.35 1.24 1.14 1.05 1.02 1.03 1.05 1.03 1.12 1.13 1.26
0.20 0.29 0.29 0.32 0.27 0.18 0.18 0.19 0.27 0.24 0.16 0.13 0.12 0.18 0.18 0.15 0.13 0.21 0.26 0.35 0.59 0.91 1.31 1.59 1.89 2.20 2.03 1.85 1.80 1.72 1.57 1.34 1.05 0.85 0.83 0.81 0.81 0.79 0.76 0.72 0.70 0.69 0.70 0.78
0.38 0.51 0.45 0.33 0.28 0.22 0.23 0.24 0.24 0.21 0.16 0.16 0.17 0.17 0.17 0.23 0.35 0.48 0.63 0.77 0.83 1.09 1.33 1.42 1.73 1.64 1.48 1.29 1.16 1.10 0.92 0.85 0.74 0.66 0.66 0.61 0.58 0.58 0.56 0.57 0.61 0.61 0.62 0.53
0.17 0.19 0.22 0.28 0.36 0.35 0.23 0.15 0.13 0.20 0.33 0.41 0.47 0.55 0.71 0.82 0.99 1.17 1.28 1.25 1.17 1.24 1.27 1.14 0.88 0.72 0.67 0.66 0.70 0.72 0.65 0.58 0.46 0.49 0.53 0.54 0.52 0.48 0.49 0.48 0.48 0.50 0.53 0.57
0.23 0.31 0.34 0.32 0.29 0.37 0.40 0.45 0.53 0.61 0.67 0.80 0.89 0.95 0.93 0.97 0.90 0.94 0.97 0.87 0.74 0.66 0.82 0.51 0.51 0.50 0.53 0.62 0.54 0.60 0.65 0.58 0.53 0.54 0.51 0.49 0.48 0.42 0.49 0.57 0.60 0.59 0.59 0.65
0.38 0.28 0.28 0.27 0.31 0.51 0.73 0.84 0.82 0.78 0.66 0.55 0.66 0.85 1.00 1.17 1.17 1.10 0.99 1.03 0.94 0.74 0.50 0.42 0.48 0.47 0.60 0.70 0.65 0.60 0.67 0.70 0.64 0.62 0.61 0.64 0.68 0.72 0.63 0.53 0.51 0.58 0.63 0.69
0.86 0.56 0.48 0.46 0.47 0.61 0.80 0.87 0.83 0.91 1.02 0.74 0.58 0.73 0.90 1.14 1.27 1.31 1.11 1.04 1.13 0.87 0.76 0.70 0.62 0.53 0.56 0.85 0.91 0.89 0.87 0.88 0.87 0.85 0.83 0.80 0.77 0.70 0.67 0.64 0.63 0.61 0.62 0.68
1.27 1.32 1.19 1.02 0.87 1.12 1.16 1.03 0.89 0.92 0.97 1.08 1.04 1.01 1.03 1.19 1.31 1.43 1.28 1.14 1.24 1.14 1.06 0.96 0.83 0.83 0.80 0.89 0.95 1.08 1.04 1.00 1.04 0.99 0.94 0.80 0.76 0.73 0.65 0.62 0.67 0.64 0.64 0.68
1.22 1.36 1.52 1.60 1.63 1.72 1.72 1.51 1.40 1.21 1.23 1.23 1.23 1.20 1.15 1.29 1.26 1.29 1.39 1.26 1.06 1.11 1.05 1.05 0.99 0.96 1.00 0.98 0.90 0.96 1.08 1.06 0.94 0.87 0.88 0.88 0.77 0.71 0.70 0.67 0.64 0.66 0.66 0.68
1.15 1.25 1.39 1.52 1.45 1.28 1.37 1.51 1.30 1.27 1.25 1.33 1.33 1.34 1.27 1.28 1.34 1.12 1.16 1.09 0.97 0.99 1.07 1.13 1.04 0.91 0.87 0.91 0.87 0.86 0.90 0.98 0.89 0.77 0.73 0.78 0.78 0.75 0.71 0.65 0.66 0.62 0.59 0.60
1.08 1.18 1.18 1.01 0.86 1.05 1.08 1.14 1.03 1.16 1.05 1.12 1.26 1.28 1.18 1.04 1.24 1.28 1.15 1.05 0.99 0.98 1.14 1.05 0.94 1.03 0.99 0.92 0.92 0.86 0.83 0.82 0.83 0.83 0.80 0.76 0.70 0.70 0.68 0.64 0.61 0.62 0.62 0.59
1.02 1.00 1.07 0.99 0.83 0.81 0.86 0.83 0.78 0.94 0.88 0.89 0.98 0.99 0.94 0.91 0.96 1.04 1.04 0.98 0.91 0.90 1.05 1.08 0.94 0.94 0.97 0.96 0.97 0.96 0.86 0.81 0.81 0.77 0.78 0.78 0.71 0.67 0.65 0.62 0.62 0.63 0.59 0.56
1.04 1.05 1.00 0.96 0.92 0.69 0.60 0.72 0.79 0.82 0.82 0.87 0.82 0.75 0.75 0.74 0.73 0.77 0.85 0.87 0.87 0.91 0.98 0.96 0.85 0.83 0.90 0.95 0.97 1.00 0.95 0.89 0.85 0.80 0.77 0.77 0.77 0.77 0.69 0.67 0.67 0.62 0.57 0.57